SR1WXZ Weather Reports


time (UTC)temp
F
wind
direction
speed
knots
gust
knots
rain 1hr
in
rain 24hr
in
rain mn
in
humidity
%
barometer
mb
20260902091800 64 240 7.8 0.0 0.00 0.00 0.00 77 1019.0
20260902091050 63 260 7.8 0.0 0.00 0.00 0.00 82 1019.0
20260902090257 63 260 7.8 0.0 0.00 0.00 0.00 82 1019.0
20260902085056 63 260 7.8 0.0 0.00 0.00 0.00 82 1019.0
20260902084759 63 260 7.8 0.0 0.00 0.00 0.00 82 1019.0
20260902083257 61 250 5.2 0.0 0.00 0.00 0.00 87 1019.0
20260902083054 61 250 5.2 0.0 0.00 0.00 0.00 87 1019.0
20260902081800 61 250 5.2 0.0 0.00 0.00 0.00 87 1019.0
20260902081052 59 260 7.0 0.0 0.00 0.00 0.00 93 1019.0
20260902080257 59 260 7.0 0.0 0.00 0.00 0.00 93 1019.0
20260902075056 59 260 7.0 0.0 0.00 0.00 0.00 93 1019.0
20260902074758 59 260 7.0 0.0 0.00 0.00 0.00 93 1019.0
20260902073256 59 260 7.0 0.0 0.00 0.00 0.00 93 1019.0
20260902073054 59 260 7.0 0.0 0.00 0.00 0.00 93 1019.0
20260902071759 59 260 7.0 0.0 0.00 0.00 0.00 93 1019.0
20260902071052 59 260 8.7 0.0 0.00 0.00 0.00 93 1018.0
20260902070257 59 260 8.7 0.0 0.00 0.00 0.00 93 1018.0
20260902065055 59 260 8.7 0.0 0.00 0.00 0.00 93 1018.0
20260902064759 59 260 8.7 0.0 0.00 0.00 0.00 93 1018.0
20260902063258 57 250 6.1 0.0 0.00 0.00 0.00 93 1018.0
20260902063054 57 250 6.1 0.0 0.00 0.00 0.00 93 1018.0
20260902061759 57 250 6.1 0.0 0.00 0.00 0.00 93 1018.0
20260902061052 57 230 4.3 0.0 0.00 0.00 0.00 93 1018.0
20260902060257 57 230 4.3 0.0 0.00 0.00 0.00 93 1018.0
20260902055054 57 230 4.3 0.0 0.00 0.00 0.00 93 1018.0
20260902054758 57 230 4.3 0.0 0.00 0.00 0.00 93 1018.0
20260902053258 55 0.0 0.0 0.00 0.00 0.00 100 1018.0
20260902053053 55 0.0 0.0 0.00 0.00 0.00 100 1018.0
20260902051759 55 0.0 0.0 0.00 0.00 0.00 100 1018.0
20260902051051 55 0.0 0.0 0.00 0.00 0.00 100 1018.0
20260902050257 55 0.0 0.0 0.00 0.00 0.00 100 1018.0
20260902045055 55 0.0 0.0 0.00 0.00 0.00 100 1018.0
20260902044759 55 0.0 0.0 0.00 0.00 0.00 100 1018.0
20260902043257 52 190 2.6 0.0 0.00 0.00 0.00 100 1018.0
20260902043054 52 190 2.6 0.0 0.00 0.00 0.00 100 1018.0
20260902041759 52 190 2.6 0.0 0.00 0.00 0.00 100 1018.0
20260902041052 50 200 1.7 0.0 0.00 0.00 0.00 100 1017.0
20260902040257 50 200 1.7 0.0 0.00 0.00 0.00 100 1017.0
20260902035054 50 200 1.7 0.0 0.00 0.00 0.00 100 1017.0
20260902034758 50 200 1.7 0.0 0.00 0.00 0.00 100 1017.0
20260902033258 52 0.0 0.0 0.00 0.00 0.00 100 1018.0
20260902033052 52 0.0 0.0 0.00 0.00 0.00 100 1018.0
20260902031759 52 0.0 0.0 0.00 0.00 0.00 100 1018.0
20260902031051 52 0.0 0.0 0.00 0.00 0.00 100 1017.0
20260902030257 52 0.0 0.0 0.00 0.00 0.00 100 1017.0
20260902025055 52 0.0 0.0 0.00 0.00 0.00 100 1017.0
20260902024758 52 0.0 0.0 0.00 0.00 0.00 100 1017.0
20260902023258 55 210 1.7 0.0 0.00 0.00 0.00 93 1017.0
20260902023053 55 210 1.7 0.0 0.00 0.00 0.00 93 1017.0
20260902021759 55 210 1.7 0.0 0.00 0.00 0.00 93 1017.0
20260902021052 55 0.0 0.0 0.00 0.00 0.00 93 1017.0
20260902020257 55 0.0 0.0 0.00 0.00 0.00 93 1017.0
20260902015055 55 0.0 0.0 0.00 0.00 0.00 93 1017.0
20260902014758 55 0.0 0.0 0.00 0.00 0.00 93 1017.0
20260902013257 54 180 2.6 0.0 0.00 0.00 0.00 93 1017.0
20260902013054 54 180 2.6 0.0 0.00 0.00 0.00 93 1017.0
20260902011759 54 180 2.6 0.0 0.00 0.00 0.00 93 1017.0
20260902011052 55 250 5.2 0.0 0.00 0.00 0.00 93 1017.0
20260902010302 55 250 5.2 0.0 0.00 0.00 0.00 93 1017.0
20260902005055 55 250 5.2 0.0 0.00 0.00 0.00 93 1017.0
20260902004758 55 250 5.2 0.0 0.00 0.00 0.00 93 1017.0
20260902003257 55 250 5.2 0.0 0.00 0.00 0.00 93 1017.0
20260902003054 55 250 5.2 0.0 0.00 0.00 0.00 93 1017.0
20260902001759 55 250 5.2 0.0 0.00 0.00 0.00 93 1017.0
20260902001052 57 240 6.1 0.0 0.00 0.00 0.00 93 1017.0
20260902000259 57 240 6.1 0.0 0.00 0.00 0.00 93 1017.0
20260901235055 57 240 6.1 0.0 0.00 0.00 0.00 93 1017.0
20260901234757 57 240 6.1 0.0 0.00 0.00 0.00 93 1017.0
20260901233257 57 260 7.0 0.0 0.00 0.00 0.00 93 1017.0
20260901233053 57 260 7.0 0.0 0.00 0.00 0.00 93 1017.0
20260901231759 57 260 7.0 0.0 0.00 0.00 0.00 93 1017.0
20260901231052 59 260 8.7 0.0 0.00 0.00 0.00 87 1017.0
20260901230258 59 260 8.7 0.0 0.00 0.00 0.00 87 1017.0
20260901225055 59 260 8.7 0.0 0.00 0.00 0.00 87 1017.0
20260901224758 59 260 8.7 0.0 0.00 0.00 0.00 87 1017.0
20260901223257 59 250 7.8 0.0 0.00 0.00 0.00 93 1017.0
20260901223053 59 250 7.8 0.0 0.00 0.00 0.00 93 1017.0
20260901221805 59 250 7.8 0.0 0.00 0.00 0.00 93 1017.0
20260901221052 59 250 6.1 0.0 0.00 0.00 0.00 93 1017.0
20260901220258 59 250 6.1 0.0 0.00 0.00 0.00 93 1017.0
20260901215101 59 250 6.1 0.0 0.00 0.00 0.00 93 1017.0
20260901214758 59 250 6.1 0.0 0.00 0.00 0.00 93 1017.0
20260901213258 57 240 4.3 0.0 0.00 0.00 0.00 100 1017.0
20260901213059 57 240 4.3 0.0 0.00 0.00 0.00 100 1017.0
20260901211803 57 240 4.3 0.0 0.00 0.00 0.00 100 1017.0
20260901211057 57 240 4.3 0.0 0.00 0.00 0.00 93 1017.0
20260901210256 57 240 4.3 0.0 0.00 0.00 0.00 93 1017.0
20260901205054 57 240 4.3 0.0 0.00 0.00 0.00 93 1017.0
20260901204800 57 240 4.3 0.0 0.00 0.00 0.00 93 1017.0
20260901203258 57 0.0 0.0 0.00 0.00 0.00 100 1017.0
20260901203053 57 0.0 0.0 0.00 0.00 0.00 100 1017.0
20260901201759 57 0.0 0.0 0.00 0.00 0.00 100 1017.0
20260901201051 59 260 2.6 0.0 0.00 0.00 0.00 93 1017.0
20260901200256 59 260 2.6 0.0 0.00 0.00 0.00 93 1017.0
20260901195054 59 260 2.6 0.0 0.00 0.00 0.00 93 1017.0
20260901194759 59 260 2.6 0.0 0.00 0.00 0.00 93 1017.0
20260901193256 59 240 2.6 0.0 0.00 0.00 0.00 93 1016.0
20260901193052 59 240 2.6 0.0 0.00 0.00 0.00 93 1016.0
20260901191759 59 240 2.6 0.0 0.00 0.00 0.00 93 1016.0
20260901191050 59 230 5.2 0.0 0.00 0.00 0.00 93 1016.0
20260901190259 59 230 5.2 0.0 0.00 0.00 0.00 93 1016.0
20260901185053 59 230 5.2 0.0 0.00 0.00 0.00 93 1016.0
20260901184757 59 230 5.2 0.0 0.00 0.00 0.00 93 1016.0
20260901183257 61 250 5.2 0.0 0.00 0.00 0.00 93 1016.0
20260901183051 61 250 5.2 0.0 0.00 0.00 0.00 93 1016.0
20260901181759 61 250 5.2 0.0 0.00 0.00 0.00 93 1016.0
20260901181049 61 230 4.3 0.0 0.00 0.00 0.00 93 1016.0
20260901180256 61 230 4.3 0.0 0.00 0.00 0.00 93 1016.0
20260901175053 61 230 4.3 0.0 0.00 0.00 0.00 93 1016.0
20260901174757 61 230 4.3 0.0 0.00 0.00 0.00 93 1016.0
20260901173257 61 200 4.3 0.0 0.00 0.00 0.00 93 1016.0
20260901173051 61 200 4.3 0.0 0.00 0.00 0.00 93 1016.0
20260901171758 61 200 4.3 0.0 0.00 0.00 0.00 93 1016.0
20260901171049 63 220 7.0 0.0 0.00 0.00 0.00 88 1016.0
20260901170257 63 220 7.0 0.0 0.00 0.00 0.00 88 1016.0
20260901165054 63 220 7.0 0.0 0.00 0.00 0.00 88 1016.0
20260901164758 63 220 7.0 0.0 0.00 0.00 0.00 88 1016.0
20260901163256 63 190 2.6 0.0 0.00 0.00 0.00 93 1015.0
20260901163053 63 190 2.6 0.0 0.00 0.00 0.00 93 1015.0
20260901161758 63 190 2.6 0.0 0.00 0.00 0.00 93 1015.0
20260901161051 61 280 2.6 0.0 0.00 0.00 0.00 100 1015.0
20260901160256 61 280 2.6 0.0 0.00 0.00 0.00 100 1015.0
20260901155053 61 280 2.6 0.0 0.00 0.00 0.00 100 1015.0
20260901154758 61 280 2.6 0.0 0.00 0.00 0.00 100 1015.0
20260901153257 66 300 6.1 0.0 0.00 0.00 0.00 88 1015.0
20260901153052 66 300 6.1 0.0 0.00 0.00 0.00 88 1015.0
20260901151758 66 300 6.1 0.0 0.00 0.00 0.00 88 1015.0
20260901151050 66 250 2.6 0.0 0.00 0.00 0.00 82 1015.0
20260901150256 66 250 2.6 0.0 0.00 0.00 0.00 82 1015.0
20260901145101 66 250 2.6 0.0 0.00 0.00 0.00 82 1015.0
20260901144758 66 250 2.6 0.0 0.00 0.00 0.00 82 1015.0
20260901143257 64 0.0 0.0 0.00 0.00 0.00 82 1015.0
20260901143059 64 0.0 0.0 0.00 0.00 0.00 82 1015.0
20260901141759 64 0.0 0.0 0.00 0.00 0.00 82 1015.0
20260901141057 63 240 5.2 0.0 0.00 0.00 0.00 88 1015.0
20260901140257 63 240 5.2 0.0 0.00 0.00 0.00 88 1015.0
20260901135053 63 240 5.2 0.0 0.00 0.00 0.00 88 1015.0
20260901134758 63 240 5.2 0.0 0.00 0.00 0.00 88 1015.0
20260901133257 61 290 7.0 0.0 0.00 0.00 0.00 93 1015.0
20260901133052 61 290 7.0 0.0 0.00 0.00 0.00 93 1015.0
20260901131802 61 290 7.0 0.0 0.00 0.00 0.00 93 1015.0
20260901131050 63 280 13.9 26.9 0.00 0.00 0.00 88 1015.0
20260901130304 63 280 13.9 26.9 0.00 0.00 0.00 88 1015.0
20260901125052 63 280 13.9 26.9 0.00 0.00 0.00 88 1015.0
20260901124800 63 280 13.9 26.9 0.00 0.00 0.00 88 1015.0
20260901123258 63 260 13.9 25.2 0.00 0.00 0.00 88 1015.0
20260901123050 63 260 13.9 25.2 0.00 0.00 0.00 88 1015.0
20260901121758 63 260 13.9 25.2 0.00 0.00 0.00 88 1015.0
20260901121049 70 240 13.0 0.0 0.00 0.00 0.00 64 1014.0
20260901120258 70 240 13.0 0.0 0.00 0.00 0.00 64 1014.0
20260901115053 70 240 13.0 0.0 0.00 0.00 0.00 64 1014.0
20260901114758 70 240 13.0 0.0 0.00 0.00 0.00 64 1014.0
20260901113257 70 260 12.2 0.0 0.00 0.00 0.00 64 1014.0
20260901113051 70 260 12.2 0.0 0.00 0.00 0.00 64 1014.0
20260901111758 70 260 12.2 0.0 0.00 0.00 0.00 64 1014.0
20260901111050 68 240 11.3 0.0 0.00 0.00 0.00 68 1014.0
20260901110257 68 240 11.3 0.0 0.00 0.00 0.00 68 1014.0
20260901105053 68 240 11.3 0.0 0.00 0.00 0.00 68 1014.0
20260901104758 68 240 11.3 0.0 0.00 0.00 0.00 68 1014.0
20260901103257 66 260 11.3 0.0 0.00 0.00 0.00 77 1014.0
20260901103051 66 260 11.3 0.0 0.00 0.00 0.00 77 1014.0
20260901101758 66 260 11.3 0.0 0.00 0.00 0.00 77 1014.0
20260901101050 64 260 8.7 0.0 0.00 0.00 0.00 82 1014.0
20260901100257 64 260 8.7 0.0 0.00 0.00 0.00 82 1014.0
20260901095052 64 260 8.7 0.0 0.00 0.00 0.00 82 1014.0
20260901094758 64 260 8.7 0.0 0.00 0.00 0.00 82 1014.0
20260901093259 63 250 7.8 0.0 0.00 0.00 0.00 88 1014.0
20260901093050 63 250 7.8 0.0 0.00 0.00 0.00 88 1014.0